User: anonymous   Login
Location: Unspecified
(0.0000°N, 0.0000°E)
Time: 08:53:08
(UTC+00:00)
Language:

STARLINK-31543 - Orbit

View from above orbital plane
View from above orbital plane
View from above satellite
View from above satellite

Ground track
Ground track

The orbit is defined by the following mean orbital elements,

1 59402U          26145.58554560 +.00000000 +00000-0 +55048-5 0 00006
2 59402  43.0021 342.1092 0001062 274.5680  85.5050 15.27577380    02
Epoch (UTC): 25 May 2026 14:03:11
Eccentricity: 0.0001062
inclination: 43.0021°
perigee height: 482 km
apogee height: 484 km
right ascension of ascending node: 342.1092°
argument of perigee: 274.5680°
revolutions per day: 15.27577380
mean anomaly at epoch: 85.5050°

The dashed part of the orbit path shows where the satellite is in the earth's shadow,  

DLR